Humidity-temperature Sensor

Selected Measurement Type: Air Temperature

 
Air Temperature [°C]     6 entries per hour
Showing data from 10/5/2015 (00:00:00 Z) to 10/4/2015 (00:01:00 Z)
Previous Next [ Day | 3-Days | 7-Days ]
First Last
Prev [ Day | 3-Days | 7-Days ] Next
First Last

Start Time:     :
End Time:     :     
Time (in GMT) :00 :50 :40 :30 :20 :10
Previous Next [ Day | 3-Days | 7-Days ]
First Last
Prev [ Day | 3-Days | 7-Days ] Next
First Last


123 => good data
MM => data is determined as missing
-- => data not received/configured
Back to Top Back to Top
10/5/2015 00:00 to 23:10 28.51 28.38 28.58 28.40 28.63 28.41
10/4/2015 23:00 to 22:10 28.25 28.34 28.44 28.39 28.23 28.35
10/4/2015 22:00 to 21:10 28.30 28.33 28.19 28.36 28.30 28.35
10/4/2015 21:00 to 20:10 28.30 28.29 28.42 28.43 28.25 28.28
10/4/2015 20:00 to 19:10 28.21 28.38 28.26 28.47 28.53 28.49
10/4/2015 19:00 to 18:10 28.26 28.53 28.36 28.49 28.39 28.58
10/4/2015 18:00 to 17:10 28.45 28.45 28.44 28.53 28.57 28.61
10/4/2015 17:00 to 16:10 28.58 28.35 28.56 28.34 28.48 28.39
10/4/2015 16:00 to 15:10 28.35 28.40 28.26 28.17 27.93 27.98
10/4/2015 15:00 to 14:10 28.02 28.07 27.92 27.98 27.94 28.12
10/4/2015 14:00 to 13:10 28.07 27.74 28.04 27.89 27.97 28.04
10/4/2015 13:00 to 12:10 28.00 28.08 27.92 28.05 27.98 28.09
10/4/2015 12:00 to 11:10 28.01 27.96 27.98 27.95 28.06 27.96
10/4/2015 11:00 to 10:10 27.94 28.06 28.14 28.13 28.19 28.08
10/4/2015 10:00 to 9:10 28.20 28.17 28.33 28.21 28.19 28.29
10/4/2015 09:00 to 8:10 28.20 28.20 28.21 28.20 28.12 28.25
10/4/2015 08:00 to 7:10 28.02 28.15 28.37 28.22 28.32 28.06
10/4/2015 07:00 to 6:10 28.17 28.33 28.25 28.18 28.27 28.25
10/4/2015 06:00 to 5:10 28.30 28.26 28.35 28.33 28.22 28.41
10/4/2015 05:00 to 4:10 28.40 28.36 28.20 28.35 28.36 28.26
10/4/2015 04:00 to 3:10 28.20 28.18 28.16 28.22 28.30 28.36
10/4/2015 03:00 to 2:10 28.26 28.14 28.32 28.38 28.47 28.45
10/4/2015 02:00 to 1:10 28.37 28.38 28.51 28.53 28.78 28.73
10/4/2015 01:00 to 0:10 28.83 28.81 28.56 28.68 28.71 28.71